GW4912 Weather Reports


time (UTC)temp
F
wind
direction
speed
knots
gust
knots
rain 1hr
in
rain 24hr
in
rain mn
in
humidity
%
barometer
mb
20260510180311 64 107 2.6 4.3 0.00 0.00 0.00 37 1018.1
20260510175807 63 60 2.6 6.1 0.00 0.00 0.00 42 1018.0
20260510175306 62 105 1.7 5.2 0.00 0.00 0.00 38 1018.2
20260510174800 62 60 3.5 11.3 0.00 0.00 0.00 37 1018.1
20260510174257 63 102 1.7 7.8 0.00 0.00 0.00 35 1018.1
20260510173753 63 104 1.7 6.1 0.00 0.00 0.00 37 1018.1
20260510173249 64 104 1.7 5.2 0.00 0.00 0.00 38 1018.2
20260510172745 66 139 8.7 9.6 0.00 0.00 0.00 34 1018.2
20260510172241 64 114 3.5 5.2 0.00 0.00 0.00 39 1018.0
20260510171738 63 112 2.6 7.0 0.00 0.00 0.00 39 1018.2
20260510171235 63 103 1.7 7.8 0.00 0.00 0.00 37 1018.2
20260510170732 64 127 6.1 9.6 0.00 0.00 0.00 31 1018.0
20260510170228 64 209 0.9 2.6 0.00 0.00 0.00 40 1018.0
20260510165724 64 136 3.5 7.8 0.00 0.00 0.00 32 1018.1
20260510165220 64 120 1.7 3.5 0.00 0.00 0.00 37 1018.0
20260510164718 64 129 4.3 7.0 0.00 0.00 0.00 29 1018.1
20260510164215 63 108 3.5 6.1 0.00 0.00 0.00 33 1018.0
20260510163710 63 0 1.7 5.2 0.00 0.00 0.00 38 1017.9
20260510163206 62 34 2.6 5.2 0.00 0.00 0.00 43 1018.0
20260510162706 64 106 0.9 7.0 0.00 0.00 0.00 42 1017.9
20260510162203 63 301 1.7 2.6 0.00 0.00 0.00 40 1017.9
20260510161659 63 38 2.6 2.6 0.00 0.00 0.00 50 1017.9
20260510161155 64 95 5.2 5.2 0.00 0.00 0.00 44 1017.8
20260510160652 63 146 4.3 4.3 0.00 0.00 0.00 39 1017.6
20260510160148 62 100 5.2 5.2 0.00 0.00 0.00 42 1017.9
20260510155644 62 66 2.6 7.8 0.00 0.00 0.00 47 1017.8
20260510155140 62 86 2.6 4.3 0.00 0.00 0.00 45 1017.5
20260510154635 61 79 2.6 7.0 0.00 0.00 0.00 48 1017.5
20260510154131 63 109 3.5 4.3 0.00 0.00 0.00 41 1017.4
20260510153627 63 100 0.9 2.6 0.00 0.00 0.00 47 1017.3
20260510153124 61 98 1.7 4.3 0.00 0.00 0.00 41 1017.3
20260510152620 58 172 2.6 7.8 0.00 0.00 0.00 43 1017.3
20260510152116 61 93 1.7 5.2 0.00 0.00 0.00 44 1017.5
20260510151613 61 116 4.3 6.1 0.00 0.00 0.00 42 1017.6
20260510151112 60 135 2.6 5.2 0.00 0.00 0.00 41 1017.5
20260510150611 60 148 1.7 4.3 0.00 0.00 0.00 46 1017.3
20260510150107 59 78 3.5 5.2 0.00 0.00 0.00 46 1017.3
20260510145604 58 85 2.6 8.7 0.00 0.00 0.00 45 1017.3
20260510145101 58 143 3.5 7.8 0.00 0.00 0.00 44 1017.4
20260510144557 58 80 2.6 5.2 0.00 0.00 0.00 47 1017.3
20260510144053 58 116 2.6 7.8 0.00 0.00 0.00 47 1017.1
20260510143548 57 157 3.5 11.3 0.00 0.00 0.00 45 1017.1
20260510143045 57 116 2.6 8.7 0.00 0.00 0.00 45 1017.0
20260510142542 57 118 4.3 11.3 0.00 0.00 0.00 46 1016.9
20260510142039 56 155 2.6 7.8 0.00 0.00 0.00 47 1016.9
20260510141535 57 114 2.6 9.6 0.00 0.00 0.00 50 1016.8
20260510141033 57 88 0.9 7.0 0.00 0.00 0.00 50 1016.9
20260510140529 57 139 1.7 7.0 0.00 0.00 0.00 46 1017.1
20260510140029 57 105 1.7 4.3 0.00 0.00 0.00 48 1017.3
20260510135524 55 304 0.0 5.2 0.00 0.00 0.00 50 1017.1
20260510135021 55 138 6.1 9.6 0.00 0.00 0.00 46 1017.0
20260510134518 55 146 2.6 4.3 0.00 0.00 0.00 50 1017.1
20260510134015 54 167 4.3 6.1 0.00 0.00 0.00 49 1017.0
20260510133511 54 129 2.6 5.2 0.00 0.00 0.00 53 1016.9
20260510133007 53 134 2.6 5.2 0.00 0.00 0.00 54 1017.1
20260510132504 52 117 5.2 6.1 0.00 0.00 0.00 56 1016.9
20260510132001 53 136 4.3 9.6 0.00 0.00 0.00 54 1016.8
20260510131459 53 131 1.7 9.6 0.00 0.00 0.00 55 1016.7
20260510130955 53 79 2.6 5.2 0.00 0.00 0.00 56 1016.6
20260510130452 53 102 2.6 7.0 0.00 0.00 0.00 56 1016.2
20260510125949 53 83 3.5 5.2 0.00 0.00 0.00 59 1016.2
20260510125445 52 126 6.1 7.8 0.00 0.00 0.00 58 1016.4
20260510124942 51 86 2.6 9.6 0.00 0.00 0.00 58 1016.2
20260510124438 52 161 3.5 9.6 0.00 0.00 0.00 59 1015.9
20260510123935 53 82 3.5 6.1 0.00 0.00 0.00 61 1016.0
20260510123431 51 117 0.9 6.1 0.00 0.00 0.00 62 1015.7
20260510122927 51 124 3.5 6.1 0.00 0.00 0.00 65 1015.8
20260510122427 50 139 4.3 8.7 0.00 0.00 0.00 65 1015.9
20260510121924 50 138 3.5 5.2 0.00 0.00 0.00 65 1015.9
20260510121421 49 115 4.3 8.7 0.00 0.00 0.00 66 1015.9
20260510120919 49 72 2.6 7.0 0.00 0.00 0.00 69 1015.7
20260510120416 49 141 5.2 7.0 0.00 0.00 0.00 69 1015.4
20260510115911 48 128 4.3 8.7 0.00 0.00 0.00 68 1015.4
20260510115408 49 121 6.1 6.1 0.00 0.00 0.00 70 1015.1
20260510114905 49 138 1.7 3.5 0.00 0.00 0.00 71 1015.2
20260510114402 49 165 2.6 6.1 0.00 0.00 0.00 71 1014.9
20260510113857 48 103 3.5 4.3 0.00 0.00 0.00 73 1015.1
20260510113353 48 120 2.6 4.3 0.00 0.00 0.00 75 1014.5
20260510112850 48 85 0.9 3.5 0.00 0.00 0.00 75 1014.8
20260510112347 48 99 0.9 1.7 0.00 0.00 0.00 76 1014.5
20260510111843 48 149 2.6 5.2 0.00 0.00 0.00 75 1014.5
20260510111340 48 140 2.6 3.5 0.00 0.00 0.00 76 1014.4
20260510110839 47 87 2.6 6.1 0.00 0.00 0.00 76 1014.2
20260510110337 47 135 0.9 3.5 0.00 0.00 0.00 77 1014.0
20260510105833 47 131 0.0 6.1 0.00 0.00 0.00 77 1014.0
20260510105333 47 155 1.7 4.3 0.00 0.00 0.00 78 1014.1
20260510104829 47 248 1.7 3.5 0.00 0.00 0.00 79 1014.0
20260510104326 47 128 0.9 2.6 0.00 0.00 0.00 79 1013.7
20260510103823 47 152 2.6 3.5 0.00 0.00 0.00 79 1013.5
20260510103319 47 102 0.0 3.5 0.00 0.00 0.00 80 1013.4
20260510102815 47 16 0.0 3.5 0.00 0.00 0.00 80 1013.2
20260510102311 47 68 1.7 3.5 0.00 0.00 0.00 81 1013.1
20260510101808 47 148 1.7 3.5 0.00 0.00 0.00 82 1013.0
20260510101306 47 119 0.9 2.6 0.00 0.00 0.00 83 1013.0
20260510100802 47 60 0.9 2.6 0.00 0.00 0.00 83 1012.9
20260510100300 48 130 0.9 1.7 0.00 0.00 0.00 83 1012.7
20260510095756 48 121 0.0 1.7 0.00 0.00 0.00 82 1012.7
20260510095251 48 148 0.9 2.6 0.00 0.00 0.00 82 1012.7
20260510094750 48 73 0.9 1.7 0.00 0.00 0.00 82 1012.8
20260510094246 48 76 0.9 1.7 0.00 0.00 0.00 82 1012.7
20260510093742 48 141 1.7 4.3 0.00 0.00 0.00 82 1012.7
20260510093239 47 110 1.7 1.7 0.00 0.00 0.00 84 1012.6
20260510092735 47 153 0.9 2.6 0.00 0.00 0.00 86 1012.4
20260510092231 47 110 0.9 4.3 0.00 0.00 0.00 87 1012.5
20260510091727 46 54 0.0 1.7 0.00 0.00 0.00 88 1012.3
20260510091224 46 66 0.0 1.7 0.00 0.00 0.00 89 1012.3
20260510090720 46 113 0.0 0.0 0.00 0.00 0.00 89 1012.1
20260510090218 46 126 0.0 0.0 0.00 0.00 0.00 89 1012.1
20260510085712 46 49 0.0 0.9 0.00 0.00 0.00 89 1012.0
20260510085208 46 124 0.0 0.0 0.00 0.00 0.00 89 1011.9
20260510084704 46 141 0.0 0.9 0.00 0.00 0.00 89 1011.7
20260510084201 46 66 0.0 0.0 0.00 0.00 0.00 88 1011.9
20260510083658 46 32 0.0 0.0 0.00 0.00 0.00 88 1011.6
20260510083155 46 352 0.0 0.0 0.00 0.00 0.00 88 1011.5
20260510082650 46 352 0.0 0.0 0.00 0.00 0.00 88 1011.5
20260510082146 46 32 0.0 0.0 0.00 0.00 0.00 88 1011.6
20260510081641 46 32 0.0 0.9 0.00 0.00 0.00 87 1011.4
20260510081137 46 44 0.0 0.0 0.00 0.00 0.00 86 1011.4
20260510080636 47 44 0.0 0.0 0.00 0.00 0.00 85 1011.4
20260510080133 47 44 0.0 0.0 0.00 0.00 0.00 84 1011.4
20260510075631 47 22 0.0 0.9 0.00 0.00 0.00 84 1011.3
20260510075128 47 13 0.0 0.9 0.00 0.00 0.00 83 1011.3
20260510074625 47 32 0.0 0.9 0.00 0.00 0.00 82 1011.1
20260510074120 47 35 0.0 0.9 0.00 0.00 0.00 82 1010.8
20260510073617 47 54 0.9 1.7 0.00 0.00 0.00 81 1010.7
20260510073114 47 126 0.0 0.9 0.00 0.00 0.00 80 1010.4
20260510072610 47 76 0.0 0.9 0.00 0.00 0.00 79 1010.4
20260510072107 48 34 0.0 0.0 0.00 0.00 0.00 78 1010.2
20260510071602 48 89 0.0 0.9 0.00 0.00 0.00 77 1010.5
20260510071101 48 122 0.0 0.9 0.00 0.00 0.00 76 1010.2
20260510070557 49 114 0.0 1.7 0.00 0.00 0.00 75 1010.2
20260510070054 49 110 0.9 2.6 0.00 0.00 0.00 74 1010.1
20260510065550 50 123 0.9 3.5 0.00 0.00 0.00 73 1010.2
20260510065047 50 49 0.9 3.5 0.00 0.00 0.00 73 1010.2
20260510064543 50 161 1.7 2.6 0.00 0.00 0.00 73 1010.3
20260510064040 50 63 0.0 3.5 0.00 0.00 0.00 72 1010.1
20260510063537 50 103 0.9 2.6 0.00 0.00 0.00 72 1010.1
20260510063034 50 132 4.3 4.3 0.00 0.00 0.00 71 1010.2
20260510062530 51 140 0.0 1.7 0.00 0.00 0.00 71 1010.1
20260510062025 51 150 0.0 4.3 0.00 0.00 0.00 71 1010.0
20260510061522 51 133 1.7 5.2 0.00 0.00 0.00 70 1010.1
20260510061018 51 132 2.6 6.1 0.00 0.00 0.00 70 1009.8
20260510060515 51 159 1.7 3.5 0.00 0.00 0.00 70 1009.9
20260510060011 52 141 1.7 6.1 0.00 0.00 0.00 70 1009.8
20260510055507 52 140 3.5 6.1 0.00 0.00 0.00 70 1009.5
20260510055006 52 117 0.9 5.2 0.00 0.00 0.00 71 1009.6
20260510054501 53 176 0.9 5.2 0.00 0.00 0.00 73 1009.7
20260510053956 53 142 4.3 7.8 0.00 0.00 0.00 74 1009.6
20260510053451 54 118 1.7 9.6 0.00 0.00 0.00 79 1009.4
20260510052948 55 122 9.6 9.6 0.00 0.00 0.00 86 1009.3
20260510052443 56 175 1.7 8.7 0.00 0.00 0.00 88 1009.0
20260510051940 55 102 0.0 1.7 0.00 0.00 0.00 88 1008.7
20260510051436 56 32 0.0 0.9 0.00 0.00 0.00 87 1008.6
20260510050933 57 25 1.7 1.7 0.00 0.00 0.00 85 1008.5
20260510050430 57 297 1.7 3.5 0.00 0.00 0.00 84 1008.3
20260510045927 57 296 1.7 4.3 0.00 0.00 0.00 86 1008.3
20260510045424 56 264 0.0 2.6 0.00 0.00 0.00 90 1008.2
20260510044921 55 319 1.7 2.6 0.00 0.00 0.00 90 1008.1
20260510044418 55 344 0.9 2.6 0.00 0.00 0.00 90 1008.1
20260510043915 56 345 1.7 2.6 0.00 0.00 0.00 89 1008.0
20260510043410 56 353 1.7 1.7 0.00 0.00 0.00 89 1007.9
20260510042909 56 3 0.9 1.7 0.00 0.00 0.00 88 1007.8
20260510042404 56 358 2.6 4.3 0.00 0.00 0.00 89 1007.9
20260510041900 56 346 2.6 3.5 0.00 0.00 0.00 89 1007.8
20260510041358 56 102 0.0 0.9 0.00 0.00 0.00 87 1007.4
20260510040855 56 332 1.7 2.6 0.00 0.00 0.00 87 1007.1
20260510040352 56 355 1.7 2.6 0.00 0.00 0.00 86 1007.0
20260510035847 57 23 1.7 3.5 0.00 0.20 0.20 86 1007.1
20260510035343 57 304 1.7 2.6 0.00 0.20 0.20 85 1006.8
20260510034839 57 8 2.6 3.5 0.00 0.20 0.20 84 1007.0
20260510034337 57 24 2.6 3.5 0.00 0.20 0.20 85 1007.1
20260510033833 57 35 1.7 2.6 0.00 0.20 0.20 85 1006.9
20260510033330 58 4 1.7 2.6 0.00 0.20 0.20 82 1006.8
20260510032827 58 303 2.6 3.5 0.00 0.20 0.20 81 1006.9
20260510032324 58 326 2.6 3.5 0.00 0.20 0.20 82 1006.9
20260510031819 58 7 3.5 4.3 0.00 0.20 0.20 83 1006.7
20260510031314 58 330 1.7 4.3 0.02 0.20 0.20 84 1006.9
20260510030809 58 353 1.7 4.3 0.00 0.20 0.20 84 1006.9
20260510030306 58 16 1.7 5.2 0.00 0.20 0.20 84 1007.0
20260510025803 58 296 3.5 7.0 0.00 0.20 0.20 83 1006.8
20260510025301 58 28 4.3 4.3 0.00 0.20 0.20 84 1007.0
20260510024757 58 21 1.7 3.5 0.00 0.20 0.20 83 1007.1
20260510024254 57 52 0.0 5.2 0.00 0.20 0.20 83 1006.9
20260510023750 57 9 2.6 4.3 0.00 0.20 0.20 84 1007.0
20260510023247 57 355 2.6 3.5 0.00 0.20 0.20 84 1006.8
20260510022743 57 31 1.7 2.6 0.00 0.20 0.20 84 1006.9
20260510022243 58 356 1.7 3.5 0.00 0.20 0.20 83 1006.7
20260510021743 58 356 2.6 3.5 0.00 0.20 0.20 83 1006.7
20260510021241 58 316 1.7 3.5 0.00 0.20 0.20 82 1006.7
20260510020736 58 307 2.6 5.2 0.00 0.20 0.20 82 1006.6
20260510020231 58 0 4.3 9.6 0.00 0.20 0.20 83 1007.1
20260510015727 57 359 4.3 7.8 0.00 0.20 0.20 87 1007.1
20260510015224 57 13 2.6 4.3 0.00 0.20 0.20 88 1007.1
20260510014719 56 17 1.7 2.6 0.00 0.20 0.20 89 1006.2
20260510014217 56 323 1.7 2.6 0.00 0.20 0.20 89 1006.2
20260510013712 56 331 0.9 2.6 0.00 0.20 0.20 89 1006.1
20260510013208 56 337 0.9 1.7 0.00 0.20 0.20 89 1006.1
20260510012707 56 342 1.7 1.7 0.00 0.20 0.20 89 1006.1
20260510012203 56 32 0.0 1.7 0.00 0.20 0.20 89 1006.0
20260510011658 56 64 1.7 2.6 0.00 0.20 0.20 89 1006.1
20260510011154 55 32 1.7 1.7 0.00 0.20 0.20 89 1005.9
20260510010650 55 2 1.7 1.7 0.00 0.20 0.20 88 1006.1
20260510010147 56 343 0.9 1.7 0.00 0.20 0.20 88 1006.1
20260510005643 56 337 1.7 2.6 0.00 0.20 0.20 86 1006.1
20260510005140 57 21 0.0 3.5 0.00 0.20 0.20 85 1005.9
20260510004639 57 12 0.9 3.5 0.00 0.20 0.20 84 1006.1
20260510004136 57 0 1.7 3.5 0.00 0.20 0.20 83 1006.0
20260510003633 58 348 3.5 3.5 0.00 0.20 0.20 82 1005.6
20260510003129 58 1 3.5 5.2 0.00 0.20 0.20 82 1006.0
20260510002629 58 353 2.6 3.5 0.00 0.20 0.20 82 1006.0
20260510002126 58 312 1.7 3.5 0.00 0.20 0.20 82 1005.7
20260510001623 58 342 3.5 4.3 0.00 0.20 0.20 83 1006.0
20260510001122 58 328 2.6 6.1 0.00 0.20 0.20 83 1006.0
20260510000622 58 340 1.7 5.2 0.00 0.20 0.20 84 1006.0
20260510000119 58 329 1.7 6.1 0.00 0.20 0.20 85 1005.9
20260509235615 58 314 0.9 5.2 0.00 0.20 0.20 86 1005.9
20260509235112 58 331 3.5 5.2 0.00 0.20 0.20 87 1006.0
20260509234608 57 348 0.9 5.2 0.00 0.20 0.20 88 1005.6
20260509234106 57 325 3.5 5.2 0.00 0.20 0.20 89 1005.7
20260509233604 57 2 4.3 7.8 0.00 0.20 0.20 90 1005.5
20260509233101 57 355 2.6 7.0 0.00 0.20 0.20 91 1005.5
20260509232557 57 27 2.6 5.2 0.00 0.20 0.20 91 1005.5
20260509232054 56 344 4.3 6.1 0.00 0.20 0.20 92 1005.5
20260509231550 56 353 1.7 5.2 0.00 0.20 0.20 92 1005.6
20260509231048 56 343 1.7 5.2 0.00 0.20 0.20 93 1005.4
20260509230544 56 358 2.6 5.2 0.07 0.20 0.20 93 1005.5
20260509230042 56 346 0.0 5.2 0.09 0.20 0.20 93 1005.5
20260509225537 56 294 3.5 9.6 0.02 0.19 0.19 92 1006.1
20260509225033 56 7 2.6 7.8 0.14 0.18 0.18 92 1006.2
20260509224529 56 329 6.1 12.2 0.33 0.18 0.18 93 1005.6
20260509224026 56 200 1.7 4.3 0.47 0.16 0.16 93 1005.6
20260509223523 57 149 3.5 5.2 0.69 0.12 0.12 91 1005.2
20260509223021 57 141 2.6 7.8 0.45 0.08 0.08 88 1005.1
20260509222516 63 43 2.6 8.7 0.00 0.00 0.00 74 1005.0
20260509222012 68 126 1.7 2.6 0.00 0.00 0.00 64 1004.5
20260509221508 68 346 3.5 7.0 0.00 0.00 0.00 62 1003.6
20260509221004 69 5 8.7 10.4 0.00 0.00 0.00 57 1003.2
20260509220500 69 354 4.3 10.4 0.00 0.00 0.00 58 1003.3
20260509215956 69 347 7.8 13.0 0.00 0.00 0.00 58 1003.3
20260509215452 69 22 6.1 8.7 0.00 0.00 0.00 59 1003.3
20260509214950 69 351 4.3 12.2 0.00 0.00 0.00 58 1003.2
20260509214447 69 353 5.2 10.4 0.00 0.00 0.00 56 1003.2
20260509213943 69 28 3.5 8.7 0.00 0.00 0.00 58 1003.1
20260509213439 69 353 10.4 15.6 0.00 0.00 0.00 56 1003.2
20260509212937 70 11 5.2 11.3 0.00 0.00 0.00 58 1003.3
20260509212434 70 15 6.1 13.9 0.00 0.00 0.00 56 1003.1
20260509211930 71 13 6.1 8.7 0.00 0.00 0.00 56 1003.0
20260509211426 71 47 7.8 13.9 0.00 0.00 0.00 56 1003.1
20260509210922 72 12 3.5 7.0 0.00 0.00 0.00 56 1003.1
20260509210421 72 7 6.1 8.7 0.00 0.00 0.00 54 1003.1
20260509205921 71 13 8.7 11.3 0.00 0.00 0.00 55 1003.2
20260509205421 72 29 5.2 9.6 0.00 0.00 0.00 57 1003.5
20260509204917 71 326 5.2 11.3 0.00 0.00 0.00 55 1003.4
20260509204414 71 36 3.5 13.9 0.00 0.00 0.00 56 1003.5
20260509203910 71 28 7.8 11.3 0.00 0.00 0.00 57 1003.7
20260509203406 72 2 5.2 11.3 0.00 0.00 0.00 56 1003.7
20260509202904 71 17 6.1 13.9 0.00 0.00 0.00 58 1003.7
20260509202359 71 12 9.6 10.4 0.00 0.00 0.00 57 1004.0
20260509201854 71 26 4.3 13.0 0.00 0.00 0.00 59 1004.0
20260509201350 71 38 7.8 13.9 0.00 0.00 0.00 57 1004.1
20260509200848 71 328 7.8 10.4 0.00 0.00 0.00 59 1004.4
20260509200342 71 28 5.2 13.0 0.00 0.00 0.00 55 1004.3
20260509195840 71 19 7.0 13.9 0.00 0.00 0.00 58 1004.2
20260509195339 71 12 6.1 12.2 0.00 0.00 0.00 60 1004.4
20260509194839 70 29 9.6 10.4 0.00 0.00 0.00 59 1004.5
20260509194335 70 15 5.2 14.8 0.00 0.00 0.00 58 1004.4
20260509193832 70 14 7.0 13.0 0.00 0.00 0.00 59 1004.7
20260509193326 70 26 7.0 13.9 0.00 0.00 0.00 60 1004.7
20260509192823 70 7 7.8 10.4 0.00 0.00 0.00 59 1004.7
20260509192319 70 0 5.2 12.2 0.00 0.00 0.00 60 1004.8
20260509191814 69 19 4.3 7.0 0.00 0.00 0.00 63 1004.7
20260509191310 70 16 5.2 7.8 0.00 0.00 0.00 60 1004.8
20260509190806 69 267 3.5 7.0 0.00 0.00 0.00 61 1004.9
20260509190304 69 20 4.3 13.0 0.00 0.00 0.00 61 1005.0
20260509185801 69 350 7.8 10.4 0.00 0.00 0.00 62 1005.0
20260509185257 69 358 8.7 13.0 0.00 0.00 0.00 60 1005.0
20260509184754 69 332 5.2 12.2 0.00 0.00 0.00 63 1005.2
20260509184252 69 5 6.1 8.7 0.00 0.00 0.00 63 1005.2
20260509183748 69 21 5.2 7.8 0.00 0.00 0.00 64 1005.1
20260509183244 68 359 7.8 11.3 0.00 0.00 0.00 62 1005.4
20260509182739 68 351 8.7 11.3 0.00 0.00 0.00 61 1005.6
20260509182237 67 6 3.5 7.8 0.00 0.00 0.00 66 1005.3
20260509181734 67 35 3.5 8.7 0.00 0.00 0.00 65 1005.2
20260509181231 68 23 7.0 11.3 0.00 0.00 0.00 64 1005.6
20260509180728 69 358 7.8 9.6 0.00 0.00 0.00 62 1005.4